Location: Proctor
(47.8934°N, 114.3048°W)
Time: 12:48:46
(UTC+00:00)

AO-92 - Pass Details

Date: 02 July 2022
Orbit: 469 x 481 km, 97.4° (Epoch: 17 August)

Event Time Altitude Azimuth Distance (km) Brightness Sun altitude
Exits shadow 05:08:03 17° 137° (SE) 1,274 ? -11.2°
Maximum altitude 05:10:27 42° 72° (ENE) 694 ? -11.4°
Drops below altitude 10° 05:13:52 10° 0° (N) 1,672 ? -11.7°
Sets 05:16:01 0° 354° (N) 2,560 ? -11.9°
